Notices

What's New in latest Release from April 7th, 2021:

- Updated Glossary, including Speed of Maximum Gust, and Total Hourly Precipitation

- Updated national and regional climate services offices contacts and prices information

- Addition of station inventory lists for 1981-2010, 1971-2000, and 1961-1990 Normals.

If you haven't already, please take our survey and provide feedback about our website: https://eccc.sondage-survey.ca/f/LanguageSelection.aspx?s=442ca660-fcf1-47c0-95a9-59707d6fd709

Hourly Data Report for January 19, 2021

STE-ANNE-DE-BELLEVUE 1
QUEBEC
Current Station Operator: ECCC - MSC

45°25'38.000" N
73°55'45.000" W
39.00 m
702FHL8
71377
WVQ

Download Data

Hourly Data (January 2021)
Hourly Data Report for January 19, 2021
TIME
LST
Temp Definition
°C
Dew Point Definition
°C
Rel Hum Definition
%
Precip. Amount Definition
mm

Wind Dir Definition
10's deg

Wind Spd Definition
km/h
Visibility Definition
km
Stn Press Definition
kPa
Hmdx Definition


Wind Chill Definition


Weather Definition


00:00 -13.5 -15.5 85 0.0 26 6   100.87   -18 LegendNANA
01:00 -13.4 -15.3 86 0.0 25 11   100.90   -20 LegendNANA
02:00 -13.0 -15.1 85 0.0 28 5   100.94   -16 LegendNANA
03:00 -14.2 -15.9 87 0.0 26 3   101.01   -16 LegendNANA
04:00 -12.5 -14.8 83 0.0 29 10   101.02   -18 LegendNANA
05:00 -14.3 -16.0 87 0.0 24 5   101.04   -18 LegendNANA
06:00 -14.6 -15.9 89 0.0 22 2   101.07   -16 LegendNANA
07:00 -14.7 -16.1 89 0.0 23 4   101.11   -18 LegendNANA
08:00 -14.8 -16.4 88 0.0 25 3   101.15   -17 LegendNANA
09:00 -15.0 -17.0 85 0.0 31 1   101.21   -16 LegendNANA
10:00 -12.7 -15.1 82 0.0 2 1   101.19   -13 LegendNANA
11:00 -11.9 -15.1 77 0.0 33 3   101.16   -14 LegendNANA
12:00 -8.6 -14.2 64 0.0 0 1   101.07   -9 LegendNANA
13:00 -7.8 -14.4 59 0.0 17 5   100.99   -10 LegendNANA
14:00 -7.7 -12.1 71 0.0 16 6   100.98   -11 LegendNANA
15:00 -7.3 -12.5 66 0.0 13 5   100.97   -10 LegendNANA
16:00 -7.0 -10.5 76 0.0 12 3   100.98   -9 LegendNANA
17:00 -7.1 -9.7 81 0.0 8 6   100.97   -10 LegendNANA
18:00 -7.2 -8.9 88 0.0 6 5   100.96   -10 LegendNANA
19:00 -7.8 -9.0 91 0.3 36 4   101.00   -10 LegendNANA
20:00 -8.2 -9.5 91 0.3 34 5   100.93   -11 LegendNANA
21:00 -8.1 -9.4 90 0.0 3 5   100.85   -11 LegendNANA
22:00 -8.7 -10.0 90 0.0 35 7   100.86   -13 LegendNANA
23:00 -8.9 -10.1 91 0.0 32 6   100.85   -12 LegendNANA

Notes on Data Quality.

Legend

  • E = Estimated
  • M = Missing
  • NA = Not Available*
  • [empty] = Indicates an unobserved value
Date modified: